Location: 22
(39.7117°N, 89.5929°W)
Time: 08:22:26
(UTC-05:00)

Vanguard 1 Rocket - Pass Details

Date: 13 February 2023
Orbit: 652 x 4223 km, 34.3° (Epoch: 24 March)

Event Time Altitude Azimuth Distance (km) Brightness Sun altitude
Rises 11:39:47 0° 260° (W) 3,766 10.6 36.5°
Reaches altitude 10° 11:41:54 10° 258° (WSW) 3,062 10.2 36.5°
Maximum altitude 11:49:29 66° 177° (S) 1,862 10.3 36.8°
Drops below altitude 10° 12:04:43 10° 100° (E) 5,807 11.7 37.0°
Sets 12:10:27 0° 99° (E) 7,359 12.1 37.0°
